Location: Beccas
(43.4309°N, 0.1528°E)
Time: 07:23:16
(UTC+00:00)

Tiangong - Visible Passes

Search period start: 09 December 2023 00:00
Search period end: 19 December 2023 00:00
Orbit: 372 x 383 km, 41.5° (Epoch: 08 December)

Date Brightness Start Highest point End Pass type
(mag) Time Alt. Az. Time Alt. Az. Time Alt. Az.
15 Dec 1.3 05:59:03 10° SSE 05:59:23 10° SSE 05:59:43 10° SE visible
16 Dec 0.1 06:31:02 10° SSW 06:33:37 24° SSE 06:36:12 10° E visible
17 Dec 0.7 05:29:55 10° S 05:31:47 15° SSE 05:33:44 10° ESE visible
18 Dec -0.6 06:03:30 12° SW 06:06:03 33° SSE 06:08:54 10° E visible
